Location: Ferchesar
(52.6477°N, 12.4298°E)
Time: 05:33:56
(UTC+01:00)

Tiros 1 - Pass Details

Date: 04 December 2021
Orbit: 629 x 664 km, 48.4° (Epoch: 25 January)

Event Time Altitude Azimuth Distance (km) Brightness Sun altitude
Rises 19:48:09 0° 238° (WSW) 2,923 11.2 -33.8°
Reaches altitude 10° 19:50:34 10° 231° (SW) 2,021 10.1 -34.1°
Enters shadow 19:51:15 14° 228° (SW) 1,776 9.8 -34.2°
